sat.trackr.live / text

‹ back to catalog

PRAETORIAN SDA_611

NORAD 65574 · 2025-203K

PAYLOAD ACTIVE UNKNOWN

§ Identity

Operator
Country
US
Launch date
2025-09-10
Launch site
AFWTR
Launch vehicle
Mass (kg)
RCS (m²)

Purposes: military

External: N2YO · Heavens-Above · Gunter

§ Orbital elements

Epoch: 2026-05-25T03:04:11.856864Z

Period
104.10 min
Inclination
81.3027°
Eccentricity
0.0004665
Mean motion
13.83306709 rev/d
Perigee alt
948.8 km
Apogee alt
955.6 km
Semi-major
7,330.3 km
B*
1.1159e-4
RAAN
32.2601°
Arg perigee
268.6305°
Mean anomaly
91.4317°
Rev number
3,549

§ Raw data

PRAETORIAN SDA_6111 65574U 25203K   26145.12791501  .00000134  00000+0  11159-3 0  99902 65574  81.3027  32.2601 0004665 268.6305  91.4317 13.83306709 35491

JSON: /api/v1/satellites/65574 · /tle

For live sub-satellite position, see the globe view (requires WebGL).

§ Visibility from observer

Set your observer location to see the next 7 days of passes ≥ 10°. The values pass through the URL so the page stays shareable.

No JS? Fill the form by hand. The geolocation button needs JavaScript.